www.pogodaiklimat.ru

Погода и климат >> Архив погоды >> Испания >> Бадахос


ПОГОДА в Бадахосе

  • Прогноз погоды в Бадахосе
  • Монитор погоды в Бадахосе

АРХИВ ПОГОДЫ в Бадахосе

Время (UTC), дата Ветер
(напр.,м/с)
 
Видим.   Явления Облачность Т
(С)
Тd
(С)
f
(%)
Тe
(С)
Тes
(С)
Комфортность P
(гПа)
Po
(гПа)
Тmin
(С)
Tmax
(С)
R
(мм)
R24
(мм)
S
(см)
09 15.08 З 2 30 км ясно +26.6 +17.4 57 +31 +40 душно 1017.5 995.7
12 15.08 З 2 25 км ясно +35.0 +15.3 31 +37 +54 опасность
солнечного
удара
1015.9 994.7
15 15.08 З 3 25 км 1/1 1500 м
[Cu hum]
+38.4 +11.5 20 +38 +46 очень
жарко
1013.9 992.9
18 15.08 З 2 25 км ясно +38.3 +10.6 19 +37 +38 очень
жарко
1013.0 992.0 +39.2
21 15.08 З 5 н/о н/о +29.7 +12.2 34 +31 +31 жарко 1015.2 993.6
00 16.08 З 3 н/о н/о +24.9 +14.7 53 +28 +28 жарко 1016.2 994.3
03 16.08 З 2 н/о н/о +21.9 +14.5 63 +25 +25 комфорт 1016.0 993.8
06 16.08 ЮЗ 1 30 км ясно +19.7 +13.8 69 +23 +23 комфорт 1016.8 994.5 +19.7
09 16.08 З 3 25 км ясно +26.2 +15.3 51 +29 +36 жарко 1016.4 994.6
12 16.08 СЗ 3 25 км ясно +33.4 +15.4 34 +35 +50 душно 1015.2 993.9 0.0
15 16.08 З 5 30 км ясно +37.9 +12.5 22 +38 +45 очень
жарко
1013.1 992.1
18 16.08 З 5 30 км ясно +36.5 +9.9 20 +35 +36 очень
жарко
1012.4 991.3 +38.6
21 16.08 З 4 н/о н/о +28.5 +10.7 33 +29 +29 жарко 1014.6 992.9
00 17.08 З 4 н/о н/о +22.6 +12.2 52 +25 +25 комфорт 1015.6 993.5
03 17.08 З 2 н/о н/о +18.8 +13.4 71 +20 +20 1015.9 993.5
06 17.08 Ю 1 40 км ясно +16.3 +12.8 80 +17 +17 1016.3 993.7 +16.3
09 17.08 З 1 4000 м ясно +22.0 +14.9 64 +25 +35 комфорт 1016.0 993.9
12 17.08 СЗ 2 40 км ясно +30.5 +13.7 36 +32 +49 жарко 1014.1 992.6
15 17.08 З 4 40 км ясно +38.0 +2.4 11 +35 +43 очень
жарко
1011.3 990.3
18 17.08 ЮЗ 2 40 км ясно +36.8 +3.9 13 +34 +35 очень
жарко
1010.1 989.1 +38.6
21 17.08 З 5 н/о н/о +28.7 +14.1 41 +31 +31 жарко 1011.9 990.3 0.0
00 18.08 З 3 н/о дымка н/о +22.7 +15.0 62 +27 +27 душно 1013.4 991.4
03 18.08 З 3 н/о н/о +19.3 +15.8 80 +21 +21 комфорт 1013.4 991.1
06 18.08 ЮЗ 1 30 км 4/4 300 м
[St]
+16.9 +15.1 89 +18 +18 1014.4 991.9 +16.8
09 18.08 З 3 30 км 3/0
[Ac und]
+22.9 +16.0 65 +27 +32 душно 1014.9 992.9 0.0
12 18.08 З 5 30 км 6/0
[Ac As]
+29.8 +14.7 40 +32 +38 душно 1014.1 992.6
15 18.08 З 5 30 км 3/1 1000 м
[Cu hum Ac As]
+33.9 +12.3 27 +34 +39 очень
жарко
1012.6 991.4
18 18.08 З 5 30 км 1/1 1500 м
[Cu hum Ac trans Cs]
+32.5 +15.5 36 +35 +35 душно 1012.0 990.7 +34.0
21 18.08 З 5 н/о н/о +25.2 +16.9 60 +29 +29 душно 1014.8 992.9
00 19.08 З 4 н/о н/о +20.7 +15.5 72 +24 +24 комфорт 1015.9 993.7
03 19.08 З 4 н/о н/о +16.9 +12.0 73 +16 +16 1015.6 993.1
06 19.08 З 3 30 км 4/0
[Ac As Cc]
+15.3 +11.3 77 +15 +15 1016.3 993.6 +15.2
09 19.08 З 2 30 км 4/0
[Ac As Ci sp]
+21.3 +11.9 55 +23 +29 комфорт 1016.1 993.9
12 19.08 З 4 30 км 5/0
[Ac As Ci sp]
+27.9 +11.4 36 +29 +38 жарко 1015.1 993.4
15 19.08 З 6 30 км 4/0
[Ac As Ci sp]
+32.4 +2.4 15 +30 +34 жарко 1013.2 991.8
18 19.08 З 5 30 км 8/0
[Ac As Ci sp]
+30.6 +1.9 16 +28 +28 жарко 1012.7 991.2 +32.8
21 19.08 З 5 н/о н/о +23.1 +9.1 41 +25 +25 комфорт 1015.2 993.1
00 20.08 З 4 н/о н/о +19.0 +11.1 60 +20 +20 1015.9 993.5
03 20.08 З 3 н/о н/о +17.1 +11.4 69 +17 +17 1015.6 993.1
06 20.08 З 3 15 км 1/0
[Cs]
+15.4 +12.2 81 +15 +15 1016.7 994.0 +15.3
09 20.08 З 2 15 км ясно +20.4 +12.6 61 +23 +32 комфорт 1017.2 994.9
12 20.08 СЗ 2 15 км ясно +28.8 +12.7 37 +30 +47 жарко 1016.2 994.5
15 20.08 В 3 20 км ясно +33.7 +7.6 20 +32 +43 жарко 1014.0 992.7
18 20.08 В 2 25 км ясно +33.9 +9.2 22 +33 +34 жарко 1013.2 991.9 +34.7
21 20.08 З 1 н/о н/о +26.8 +8.2 31 +27 +27 жарко 1014.2 992.4
00 21.08 З 2 н/о н/о +22.9 +12.5 52 +26 +26 жарко 1014.7 992.6
03 21.08 З 3 н/о н/о +20.2 +11.7 58 +22 +22 комфорт 1015.1 992.8
06 21.08 З 1 20 км 3/0
[Cs]
+16.1 +11.0 72 +17 +17 1016.7 994.1 +16.1
09 21.08 В 2 20 км 3/0
[Cc]
+24.7 +11.6 44 +26 +33 жарко 1017.0 995.0
12 21.08 СЗ 3 20 км ясно +30.8 +13.6 35 +32 +46 жарко 1015.8 994.3
15 21.08 СВ 3 20 км ясно +35.1 +9.5 21 +34 +44 очень
жарко
1014.0 992.8
18 21.08 С 1 20 км ясно +34.8 +3.4 14 +32 +33 жарко 1013.4 992.1 +35.6
21 21.08 Ю 2 н/о н/о +28.2 +3.1 20 +26 +26 жарко 1014.7 993.0
00 22.08 ЮЗ 2 н/о н/о +23.5 +6.3 33 +24 +24 комфорт 1016.0 993.9
03 22.08 СВ 1 н/о н/о +20.8 +6.7 40 +23 +23 комфорт 1016.3 994.0
06 22.08 В 2 20 км ясно +19.7 +11.5 59 +22 +22 комфорт 1016.8 994.4 +19.2

 

Местоположение метеостанции Бадахос (Испания): широта 38.88 долгота -6.83 высота над уровнем моря 192 м.

В архиве по умолчанию представлена погода в Бадахосе за последнюю неделю. Архивные данные за месяц целиком и за предыдущие месяцы, начиная с января 2011 года, Вы можете получить, выбрав интересующий диапазон дат из раскрывающегося списка и нажав кнопку "Ввод!".


*Определитесь, кто Вы:
робот инопланетянин человек

Внимание! Время в таблицах - всемирное. Для получения местного времени необходимо прибавить поправку, которая равна 1 ч.

Смотрите также архив погоды в соседних городах и на ближайших метеорологических станциях:

Погода в Мериде (Испания) (38 км)
Погода в Херес-де-лос-Кабалье (Испания) (65 км)
Погода в Порталегре (Португалия) (68 км)
Погода в Валенсия-де-Алькантаре (Испания) (70 км)
Погода в Касересе (Испания) (79 км)
Погода в Дон Бенито (Испания) (83 км)
Погода в Эворе (Португалия) (101 км)
Погода в Льерене (Испания) (101 км)
Погода в Трухильо (Испания) (108 км)
Погода в Алахар - Кабезо Молин (Испания) (113 км)

Пояснения к столбцам:

Ветер - указаны скорость ветра в м/с - средняя за 10 мин, порывы в срок и между сроками (в фигурных скобках) и направление, откуда дует ветер: С - северный, СВ - северо-восточный, В - восточный, ЮВ - юго-восточный, Ю - южный, ЮЗ - юго-западный, З - западный, СЗ - северо-западный.
Видимость - горизонтальная дальность видимости в метрах или километрах. При видимости от 1 до 10 км при отсутствии осадков обычно наблюдается дымка, при ухудшении видимости до 1 км и менее - туман. В сухую погоду видимость может ухудшаться дымом, пылью или мглою.
Явления - указаны атмосферные явления, наблюдавшиеся в срок или в последний час перед сроком; фигурными скобками обозначены явления, наблюдавшиеся между сроками (за 1-3 часа до срока); квадратными скобками обозначены град или гололедные отложения с указанием их диаметра в мм.
Облачность - указаны через наклонную черту общая и нижняя облачность в баллах и высота нижней границы облаков в метрах; квадратными скобками обозначены формы облаков: Ci - перистые, Cs - перисто-слоистые, Cc - перисто-кучевые, Ac - высококучевые, As - высокослоистые, Sc - слоисто-кучевые, Ns - слоисто-дождевые, Cu - кучевые, Cb - кучево-дождевые. Подробнее классификацию облаков см. в Атласе облаков (PDF).
T - Температура воздуха - температура, измеренная на высоте 2 м над землей.
Td - Температура точки росы - температура, при понижении до которой содержащийся в воздухе водяной пар достигнет насыщения.
f - Относительная влажность воздуха - влажноcть воздуха, измеренная на высоте 2 м над землей.
Te - Эффективная температура - температура, которую ощущает одетый по сезону человек в тени. Характеристика душности погоды. При расчете учитывается влияние влажности воздуха и скорости ветра на теплоощущения человека.
Tes - Эффективная температура на солнце - температура, которую ощущает человек, с поправкой на солнечный нагрев. Характеристика знойности погоды. Зависит от высоты солнца над горизонтом, облачности и скорости ветра. Ночью, в пасмурную погоду, а также при ветре 12 м/с и более поправка равна нулю.
P - Атмосферное давление - приведенное к уровню моря атмосферное давление.
Po - Атмосферное давление - измеренное на уровне метеостанции атмосферное давление.
Tmin - Минимальная температура - минимум температуры воздуха на высоте 2 м над землей.
Tmax - Максимальная температура - максимум температуры воздуха на высоте 2 м над землей.
R - Количество осадков - Количество выпавших осадков за период времени, мм. При наведении курсора мыши на число - период времени, за который выпало указанное количество осадков.
R24 - Количество осадков - Количество выпавших осадков за 24 часа, мм.
S - Снежный покров - Высота снежного покрова, см. При наведении курсора мыши на число - состояние снежного покрова и степень покрытия местности в баллах.